| time (UTC) | temp F | wind direction | speed MPH | gust MPH | rain 1hr in | rain 24hr in | rain mn in | humidity % | barometer mb |
| 20260507233703 | 71 | 251 | 6.0 | 10.0 | 0.00 | 0.00 | 0.00 | 15 | 1019.4 |
| 20260507233205 | 71 | 230 | 2.0 | 13.0 | 0.00 | 0.00 | 0.00 | 15 | 1019.4 |
| 20260507231704 | 72 | 249 | 6.0 | 12.0 | 0.00 | 0.00 | 0.00 | 15 | 1019.4 |
| 20260507231203 | 72 | 241 | 7.0 | 15.0 | 0.00 | 0.00 | 0.00 | 15 | 1019.4 |
| 20260507230703 | 72 | 274 | 6.0 | 17.0 | 0.00 | 0.00 | 0.00 | 16 | 1019.4 |
| 20260507230204 | 73 | 260 | 6.0 | 15.0 | 0.00 | 0.00 | 0.00 | 17 | 1019.4 |
| 20260507223703 | 73 | 298 | 4.0 | 10.0 | 0.00 | 0.00 | 0.00 | 18 | 1019.4 |
| 20260507223203 | 73 | 265 | 1.0 | 12.0 | 0.00 | 0.00 | 0.00 | 18 | 1020.2 |
| 20260507221203 | 73 | 242 | 6.0 | 13.0 | 0.00 | 0.00 | 0.00 | 19 | 1020.2 |
| 20260507220703 | 73 | 244 | 3.0 | 12.0 | 0.00 | 0.00 | 0.00 | 18 | 1020.2 |
| 20260507220203 | 74 | 188 | 3.0 | 12.0 | 0.00 | 0.00 | 0.00 | 17 | 1020.2 |
| 20260507214203 | 74 | 268 | 4.0 | 8.0 | 0.00 | 0.00 | 0.00 | 17 | 1020.2 |
| 20260507213703 | 74 | 268 | 4.0 | 12.0 | 0.00 | 0.00 | 0.00 | 17 | 1020.2 |
| 20260507213204 | 74 | 234 | 3.0 | 13.0 | 0.00 | 0.00 | 0.00 | 16 | 1021.2 |
| 20260507211704 | 73 | 260 | 4.0 | 7.0 | 0.00 | 0.00 | 0.00 | 16 | 1021.2 |
| 20260507211203 | 74 | 17 | 2.0 | 5.0 | 0.00 | 0.00 | 0.00 | 14 | 1021.2 |
| 20260507210703 | 74 | 334 | 4.0 | 10.0 | 0.00 | 0.00 | 0.00 | 14 | 1021.2 |
| 20260507210203 | 74 | 291 | 5.0 | 8.0 | 0.00 | 0.00 | 0.00 | 15 | 1021.2 |
| 20260507204703 | 72 | 264 | 4.0 | 7.0 | 0.00 | 0.00 | 0.00 | 13 | 1021.2 |
| 20260507203704 | 72 | 338 | 2.0 | 8.0 | 0.00 | 0.00 | 0.00 | 12 | 1021.2 |
| 20260507203204 | 71 | 292 | 2.0 | 10.0 | 0.00 | 0.00 | 0.00 | 12 | 1021.4 |
| 20260507201703 | 71 | 355 | 3.0 | 12.0 | 0.00 | 0.00 | 0.00 | 11 | 1021.6 |
| 20260507201203 | 71 | 318 | 3.0 | 10.0 | 0.00 | 0.00 | 0.00 | 12 | 1021.6 |
| 20260507200703 | 70 | 281 | 5.0 | 10.0 | 0.00 | 0.00 | 0.00 | 12 | 1021.6 |
| 20260507200203 | 71 | 358 | 3.0 | 14.0 | 0.00 | 0.00 | 0.00 | 11 | 1021.7 |
| 20260507194703 | 70 | 277 | 4.0 | 12.0 | 0.00 | 0.00 | 0.00 | 13 | 1022.0 |
| 20260507194203 | 68 | 280 | 5.0 | 10.0 | 0.00 | 0.00 | 0.00 | 13 | 1022.0 |
| 20260507193703 | 68 | 353 | 5.0 | 12.0 | 0.00 | 0.00 | 0.00 | 11 | 1022.0 |
| 20260507193203 | 68 | 336 | 5.0 | 13.0 | 0.00 | 0.00 | 0.00 | 13 | 1022.0 |
| 20260507191703 | 68 | 326 | 5.0 | 12.0 | 0.00 | 0.00 | 0.00 | 15 | 1022.4 |
| 20260507191203 | 67 | 316 | 5.0 | 9.0 | 0.00 | 0.00 | 0.00 | 16 | 1022.4 |
| 20260507190203 | 66 | 333 | 5.0 | 14.0 | 0.00 | 0.00 | 0.00 | 16 | 1022.4 |
| 20260507184703 | 65 | 6 | 3.0 | 15.0 | 0.00 | 0.00 | 0.00 | 18 | 1022.4 |
| 20260507184204 | 64 | 348 | 3.0 | 14.0 | 0.00 | 0.00 | 0.00 | 19 | 1023.0 |
| 20260507183704 | 64 | 327 | 6.0 | 12.0 | 0.00 | 0.00 | 0.00 | 20 | 1023.0 |
| 20260507183204 | 64 | 348 | 8.0 | 14.0 | 0.00 | 0.00 | 0.00 | 20 | 1023.0 |
| 20260507181704 | 62 | 336 | 8.0 | 14.0 | 0.00 | 0.00 | 0.00 | 20 | 1023.0 |
| 20260507181203 | 62 | 325 | 7.0 | 16.0 | 0.00 | 0.00 | 0.00 | 23 | 1023.0 |
| 20260507180703 | 62 | 342 | 9.0 | 16.0 | 0.00 | 0.00 | 0.00 | 21 | 1023.0 |
| 20260507180204 | 61 | 325 | 6.0 | 17.0 | 0.00 | 0.00 | 0.00 | 24 | 1023.0 |
| 20260507174703 | 59 | 328 | 6.0 | 17.0 | 0.00 | 0.00 | 0.00 | 28 | 1024.1 |
| 20260507174203 | 59 | 349 | 7.0 | 16.0 | 0.00 | 0.00 | 0.00 | 28 | 1024.1 |
| 20260507173704 | 59 | 327 | 8.0 | 13.0 | 0.00 | 0.00 | 0.00 | 29 | 1024.1 |
| 20260507173204 | 59 | 351 | 7.0 | 16.0 | 0.00 | 0.00 | 0.00 | 28 | 1024.1 |
| 20260507171703 | 58 | 0 | 6.0 | 17.0 | 0.00 | 0.00 | 0.00 | 32 | 1024.1 |
| 20260507171203 | 57 | 352 | 10.0 | 17.0 | 0.00 | 0.00 | 0.00 | 31 | 1024.1 |
| 20260507170703 | 57 | 345 | 10.0 | 18.0 | 0.00 | 0.00 | 0.00 | 32 | 1024.1 |
| 20260507170204 | 56 | 341 | 9.0 | 18.0 | 0.00 | 0.00 | 0.00 | 33 | 1024.1 |
| 20260507164704 | 54 | 333 | 10.0 | 16.0 | 0.00 | 0.00 | 0.00 | 38 | 1024.1 |
| 20260507163703 | 53 | 5 | 10.0 | 18.0 | 0.00 | 0.00 | 0.00 | 42 | 1024.1 |
| 20260507163204 | 52 | 329 | 7.0 | 18.0 | 0.00 | 0.00 | 0.00 | 46 | 1024.1 |
| 20260507161704 | 50 | 355 | 7.0 | 20.0 | 0.00 | 0.00 | 0.00 | 49 | 1024.1 |
| 20260507161205 | 50 | 355 | 8.0 | 18.0 | 0.00 | 0.00 | 0.00 | 49 | 1024.1 |
| 20260507160704 | 49 | 7 | 10.0 | 16.0 | 0.00 | 0.00 | 0.00 | 50 | 1024.6 |
| 20260507160204 | 48 | 357 | 7.0 | 18.0 | 0.00 | 0.00 | 0.00 | 52 | 1024.6 |
| 20260507154703 | 47 | 346 | 9.0 | 20.0 | 0.00 | 0.00 | 0.00 | 51 | 1024.6 |
| 20260507154204 | 47 | 339 | 6.0 | 17.0 | 0.00 | 0.00 | 0.00 | 54 | 1024.6 |
| 20260507153705 | 47 | 359 | 9.0 | 16.0 | 0.00 | 0.00 | 0.00 | 53 | 1024.6 |
| 20260507153203 | 47 | 357 | 11.0 | 17.0 | 0.00 | 0.00 | 0.00 | 54 | 1025.2 |
| 20260507151703 | 46 | 345 | 5.0 | 14.0 | 0.00 | 0.00 | 0.00 | 59 | 1025.2 |
| 20260507151204 | 45 | 355 | 6.0 | 14.0 | 0.00 | 0.00 | 0.00 | 59 | 1025.2 |
| 20260507150703 | 45 | 342 | 6.0 | 12.0 | 0.00 | 0.00 | 0.00 | 59 | 1025.2 |
| 20260507150204 | 44 | 341 | 6.0 | 12.0 | 0.00 | 0.00 | 0.00 | 61 | 1025.2 |
| 20260507144704 | 43 | 332 | 5.0 | 12.0 | 0.00 | 0.00 | 0.00 | 65 | 1025.2 |
| 20260507144205 | 43 | 351 | 4.0 | 10.0 | 0.00 | 0.00 | 0.00 | 68 | 1025.2 |
| 20260507143705 | 42 | 351 | 3.0 | 7.0 | 0.00 | 0.00 | 0.00 | 70 | 1025.2 |
| 20260507143203 | 42 | 355 | 6.0 | 12.0 | 0.00 | 0.00 | 0.00 | 71 | 1025.2 |
| 20260507141703 | 40 | 1 | 6.0 | 12.0 | 0.00 | 0.00 | 0.00 | 77 | 1025.2 |
| 20260507141205 | 40 | 358 | 6.0 | 10.0 | 0.00 | 0.00 | 0.00 | 79 | 1025.2 |
| 20260507140703 | 40 | 341 | 4.0 | 7.0 | 0.00 | 0.00 | 0.00 | 81 | 1025.2 |
| 20260507140204 | 39 | 356 | 4.0 | 10.0 | 0.00 | 0.00 | 0.00 | 83 | 1025.2 |
| 20260507134704 | 37 | 0 | 3.0 | 7.0 | 0.00 | 0.00 | 0.00 | 87 | 1025.2 |
| 20260507134204 | 37 | 356 | 3.0 | 6.0 | 0.00 | 0.00 | 0.00 | 87 | 1025.2 |
| 20260507133704 | 37 | 316 | 2.0 | 6.0 | 0.00 | 0.00 | 0.00 | 88 | 1025.2 |
| 20260507133204 | 36 | 325 | 2.0 | 5.0 | 0.00 | 0.00 | 0.00 | 88 | 1025.2 |
| 20260507131703 | 35 | 33 | 1.0 | 3.0 | 0.00 | 0.00 | 0.00 | 89 | 1025.2 |
| 20260507131204 | 34 | 42 | 2.0 | 3.0 | 0.00 | 0.00 | 0.00 | 89 | 1025.2 |
| 20260507130704 | 33 | 58 | 2.0 | 3.0 | 0.00 | 0.00 | 0.00 | 89 | 1025.2 |
| 20260507130204 | 32 | 125 | 0.0 | 0.0 | 0.00 | 0.00 | 0.00 | 89 | 1025.2 |
| 20260507124704 | 31 | 126 | 0.0 | 0.0 | 0.00 | 0.00 | 0.00 | 88 | 1025.1 |
| 20260507124204 | 30 | 130 | 0.0 | 0.0 | 0.00 | 0.00 | 0.00 | 88 | 1025.1 |
| 20260507123203 | 30 | 130 | 0.0 | 0.0 | 0.00 | 0.00 | 0.00 | 87 | 1025.1 |
| 20260507121703 | 30 | 130 | 0.0 | 0.0 | 0.00 | 0.00 | 0.00 | 86 | 1025.1 |
| 20260507121203 | 29 | 130 | 0.0 | 0.0 | 0.00 | 0.00 | 0.00 | 86 | 1025.2 |
| 20260507120704 | 29 | 130 | 0.0 | 0.0 | 0.00 | 0.00 | 0.00 | 86 | 1025.2 |
| 20260507114703 | 29 | 130 | 0.0 | 0.0 | 0.00 | 0.00 | 0.00 | 84 | 1025.0 |
| 20260507114204 | 29 | 130 | 0.0 | 0.0 | 0.00 | 0.00 | 0.00 | 84 | 1025.0 |
| 20260507113703 | 29 | 130 | 0.0 | 0.0 | 0.00 | 0.00 | 0.00 | 84 | 1025.0 |
| 20260507113204 | 29 | 130 | 0.0 | 0.0 | 0.00 | 0.00 | 0.00 | 84 | 1025.0 |
| 20260507111703 | 30 | 130 | 0.0 | 0.0 | 0.00 | 0.00 | 0.00 | 84 | 1025.0 |
| 20260507110703 | 30 | 130 | 0.0 | 0.0 | 0.00 | 0.00 | 0.00 | 83 | 1025.0 |
| 20260507104703 | 30 | 130 | 0.0 | 0.0 | 0.00 | 0.00 | 0.00 | 83 | 1025.0 |
| 20260507104203 | 31 | 130 | 0.0 | 0.0 | 0.00 | 0.00 | 0.00 | 83 | 1025.0 |
| 20260507103704 | 31 | 130 | 0.0 | 0.0 | 0.00 | 0.00 | 0.00 | 83 | 1025.0 |
| 20260507101704 | 31 | 130 | 0.0 | 1.0 | 0.00 | 0.00 | 0.00 | 82 | 1025.0 |
| 20260507101204 | 31 | 130 | 0.0 | 0.0 | 0.00 | 0.00 | 0.00 | 81 | 1025.0 |
| 20260507100703 | 31 | 130 | 0.0 | 0.0 | 0.00 | 0.00 | 0.00 | 81 | 1025.0 |
| 20260507100203 | 31 | 130 | 0.0 | 3.0 | 0.00 | 0.00 | 0.00 | 81 | 1025.0 |
| 20260507094705 | 32 | 130 | 0.0 | 2.0 | 0.00 | 0.00 | 0.00 | 80 | 1025.1 |
| 20260507094204 | 32 | 130 | 0.0 | 0.0 | 0.00 | 0.00 | 0.00 | 80 | 1024.7 |
| 20260507093703 | 32 | 130 | 0.0 | 1.0 | 0.00 | 0.00 | 0.00 | 79 | 1024.7 |
| 20260507093204 | 32 | 130 | 1.0 | 2.0 | 0.00 | 0.00 | 0.00 | 79 | 1024.7 |
| 20260507091704 | 33 | 130 | 0.0 | 2.0 | 0.00 | 0.00 | 0.00 | 79 | 1024.7 |
| 20260507090704 | 34 | 130 | 2.0 | 3.0 | 0.00 | 0.00 | 0.00 | 79 | 1024.7 |
| 20260507090204 | 34 | 130 | 0.0 | 3.0 | 0.00 | 0.00 | 0.00 | 79 | 1024.7 |
| 20260507084204 | 35 | 131 | 0.0 | 0.0 | 0.00 | 0.00 | 0.00 | 79 | 1024.7 |
| 20260507083703 | 36 | 131 | 1.0 | 3.0 | 0.00 | 0.00 | 0.00 | 79 | 1024.7 |
| 20260507083204 | 36 | 131 | 2.0 | 3.0 | 0.00 | 0.00 | 0.00 | 79 | 1024.7 |
| 20260507081704 | 37 | 134 | 0.0 | 0.0 | 0.00 | 0.00 | 0.00 | 80 | 1023.9 |
| 20260507081203 | 37 | 134 | 0.0 | 0.0 | 0.00 | 0.00 | 0.00 | 80 | 1023.9 |
| 20260507080704 | 37 | 134 | 0.0 | 0.0 | 0.00 | 0.00 | 0.00 | 80 | 1023.9 |
| 20260507080204 | 37 | 134 | 0.0 | 3.0 | 0.00 | 0.00 | 0.00 | 81 | 1023.9 |
| 20260507074703 | 36 | 133 | 2.0 | 6.0 | 0.00 | 0.00 | 0.00 | 81 | 1023.9 |
| 20260507074204 | 36 | 105 | 2.0 | 6.0 | 0.00 | 0.00 | 0.00 | 81 | 1023.9 |
| 20260507073704 | 36 | 153 | 3.0 | 5.0 | 0.00 | 0.00 | 0.00 | 80 | 1023.9 |
| 20260507073203 | 36 | 17 | 0.0 | 3.0 | 0.00 | 0.00 | 0.00 | 80 | 1023.9 |
| 20260507071703 | 36 | 17 | 2.0 | 3.0 | 0.00 | 0.00 | 0.00 | 79 | 1023.9 |
| 20260507071204 | 36 | 17 | 1.0 | 2.0 | 0.00 | 0.00 | 0.00 | 79 | 1023.9 |
| 20260507070706 | 36 | 17 | 1.0 | 3.0 | 0.00 | 0.00 | 0.00 | 79 | 1023.9 |
| 20260507063703 | 37 | 17 | 0.0 | 0.0 | 0.00 | 0.00 | 0.00 | 78 | 1023.9 |
| 20260507063204 | 37 | 17 | 0.0 | 2.0 | 0.00 | 0.00 | 0.00 | 77 | 1023.9 |
| 20260507061704 | 37 | 17 | 2.0 | 3.0 | 0.00 | 0.00 | 0.00 | 76 | 1023.7 |
| 20260507061204 | 38 | 17 | 2.0 | 3.0 | 0.00 | 0.00 | 0.00 | 75 | 1023.7 |
| 20260507060705 | 38 | 17 | 1.0 | 3.0 | 0.00 | 0.00 | 0.00 | 75 | 1023.7 |
| 20260507060205 | 38 | 17 | 2.0 | 3.0 | 0.00 | 0.00 | 0.00 | 75 | 1023.7 |
| 20260507054703 | 39 | 16 | 0.0 | 0.0 | 0.00 | 0.00 | 0.00 | 74 | 1023.4 |
| 20260507054204 | 39 | 16 | 0.0 | 0.0 | 0.00 | 0.00 | 0.00 | 73 | 1023.4 |
| 20260507053704 | 39 | 16 | 0.0 | 0.0 | 0.00 | 0.00 | 0.00 | 73 | 1023.4 |
| 20260507051704 | 39 | 22 | 4.0 | 7.0 | 0.00 | 0.00 | 0.00 | 71 | 1023.4 |
| 20260507051204 | 39 | 5 | 2.0 | 3.0 | 0.00 | 0.00 | 0.00 | 67 | 1023.4 |
| 20260507050703 | 39 | 255 | 0.0 | 0.0 | 0.00 | 0.00 | 0.00 | 65 | 1023.4 |
| 20260507050204 | 39 | 255 | 0.0 | 0.0 | 0.00 | 0.00 | 0.00 | 65 | 1023.3 |
| 20260507044703 | 40 | 255 | 0.0 | 0.0 | 0.00 | 0.01 | 0.00 | 62 | 1023.2 |
| 20260507044203 | 41 | 255 | 0.0 | 0.0 | 0.00 | 0.01 | 0.00 | 62 | 1022.9 |
| 20260507043703 | 41 | 255 | 0.0 | 0.0 | 0.00 | 0.01 | 0.00 | 60 | 1022.9 |
| 20260507041203 | 43 | 255 | 0.0 | 0.0 | 0.00 | 0.01 | 0.00 | 56 | 1020.9 |
| 20260507040703 | 43 | 255 | 0.0 | 0.0 | 0.00 | 0.01 | 0.00 | 55 | 1020.9 |
| 20260507040205 | 44 | 254 | 0.0 | 0.0 | 0.00 | 0.01 | 0.00 | 53 | 1020.9 |
| 20260507034704 | 45 | 251 | 1.0 | 3.0 | 0.00 | 0.01 | 0.00 | 52 | 1020.9 |
| 20260507034204 | 45 | 250 | 0.0 | 2.0 | 0.00 | 0.01 | 0.00 | 51 | 1020.9 |
| 20260507033705 | 45 | 250 | 1.0 | 3.0 | 0.00 | 0.01 | 0.00 | 50 | 1020.9 |
| 20260507033205 | 46 | 246 | 0.0 | 1.0 | 0.00 | 0.01 | 0.00 | 49 | 1020.9 |
| 20260507031703 | 47 | 246 | 0.0 | 2.0 | 0.00 | 0.01 | 0.00 | 47 | 1020.9 |
| 20260507031204 | 47 | 246 | 0.0 | 2.0 | 0.00 | 0.01 | 0.00 | 47 | 1020.9 |
| 20260507030703 | 48 | 246 | 0.0 | 0.0 | 0.00 | 0.01 | 0.00 | 46 | 1020.9 |
| 20260507030203 | 48 | 246 | 0.0 | 3.0 | 0.00 | 0.02 | 0.00 | 45 | 1020.9 |
| 20260507024204 | 50 | 246 | 1.0 | 1.0 | 0.00 | 0.05 | 0.00 | 42 | 1020.9 |
| 20260507023704 | 50 | 246 | 0.0 | 1.0 | 0.00 | 0.06 | 0.00 | 41 | 1020.9 |
| 20260507023204 | 51 | 246 | 1.0 | 6.0 | 0.00 | 0.06 | 0.00 | 41 | 1020.9 |
| 20260507021704 | 52 | 248 | 2.0 | 5.0 | 0.00 | 0.06 | 0.00 | 39 | 1019.5 |
| 20260507021204 | 52 | 252 | 3.0 | 5.0 | 0.00 | 0.06 | 0.00 | 39 | 1019.5 |
| 20260507020704 | 52 | 241 | 4.0 | 9.0 | 0.00 | 0.06 | 0.00 | 38 | 1019.5 |
| 20260507020204 | 53 | 237 | 5.0 | 12.0 | 0.00 | 0.06 | 0.00 | 38 | 1019.5 |
| 20260507014704 | 54 | 272 | 6.0 | 12.0 | 0.00 | 0.06 | 0.00 | 37 | 1019.5 |
| 20260507013704 | 54 | 267 | 5.0 | 12.0 | 0.00 | 0.06 | 0.00 | 36 | 1019.5 |
| 20260507011204 | 56 | 264 | 10.0 | 15.0 | 0.00 | 0.07 | 0.00 | 35 | 1019.5 |
| 20260507010703 | 56 | 273 | 9.0 | 18.0 | 0.00 | 0.07 | 0.00 | 34 | 1019.5 |
| 20260507010204 | 56 | 281 | 9.0 | 24.0 | 0.00 | 0.07 | 0.00 | 34 | 1019.5 |
| 20260507004704 | 57 | 313 | 7.0 | 13.0 | 0.00 | 0.07 | 0.00 | 33 | 1019.5 |
| 20260507004205 | 58 | 301 | 6.0 | 17.0 | 0.00 | 0.07 | 0.00 | 32 | 1018.5 |
| 20260507003704 | 58 | 291 | 5.0 | 12.0 | 0.00 | 0.07 | 0.00 | 32 | 1018.5 |
| 20260507001705 | 59 | 307 | 10.0 | 18.0 | 0.00 | 0.07 | 0.00 | 33 | 1018.5 |
| 20260507001204 | 59 | 284 | 4.0 | 12.0 | 0.00 | 0.07 | 0.00 | 36 | 1018.5 |
| 20260507000703 | 58 | 284 | 6.0 | 15.0 | 0.00 | 0.07 | 0.00 | 36 | 1018.5 |
| 20260507000205 | 59 | 315 | 5.0 | 17.0 | 0.00 | 0.07 | 0.00 | 36 | 1018.1 |
| 20260506234704 | 60 | 247 | 8.0 | 12.0 | 0.00 | 0.07 | 0.00 | 32 | 1018.1 |